QPF
0.00 0.00 0.00 0.00 0.00 0.00 0.00 0.00 0.00 0.00 0.00 0.00 0.00 0.00 0.00 0.00 0.00 0.00 0.00 0.00 0.00 0.00 0.00 0.00 0.00 0.00 0.00 0.00 0.00 0.00 0.00 0.00 0.00 0.00 0.00 0.00 0.01 0.01 0.00 0.00 0.00 0.00 0.00 0.00 0.00
0.00 0.00 0.00 0.00 0.00 0.00 0.00 0.00 0.00 0.00 0.00 0.00 0.00 0.00 0.00 0.00 0.00 0.00 0.00 0.00 0.00 0.00 0.00 0.00 0.00 0.00 0.00 0.00 0.00 0.00 0.00 0.00 0.00 0.00 0.00 0.00 0.02 0.02 0.00 0.00 0.00 0.00 0.00 0.00 0.00
0.00 0.00 0.00 0.00 0.00 0.00 0.00 0.00 0.00 0.00 0.00 0.00 0.00 0.00 0.00 0.00 0.00 0.00 0.00 0.00 0.00 0.00 0.00 0.00 0.00 0.00 0.00 0.00 0.00 0.00 0.00 0.00 0.00 0.00 0.00 0.00 0.00 0.00 0.00 0.00 0.00 0.00 0.00 0.00 0.00
0.00 0.00 0.00 0.00 0.00 0.00 0.00 0.00 0.00 0.00 0.00 0.00 0.00 0.00 0.00 0.00 0.00 0.00 0.00 0.00 0.00 0.00 0.00 0.00 0.00 0.00 0.00 0.00 0.00 0.00 0.00 0.00 0.00 0.00 0.00 0.00 0.00 0.00 0.00 0.00 0.00 0.00 0.00 0.00 0.00
0.00 0.00 0.00 0.00 0.00 0.00 0.00 0.00 0.00 0.00 0.00 0.00 0.00 0.00 0.00 0.00 0.00 0.00 0.00 0.00 0.00 0.00 0.00 0.00 0.00 0.00 0.00 0.00 0.00 0.00 0.00 0.00 0.00 0.00 0.00 0.00 0.00 0.00 0.00 0.00 0.00 0.00 0.00 0.00 0.00
0.00 0.00 0.00 0.00 0.00 0.00 0.00 0.00 0.00 0.00 0.00 0.00 0.00 0.00 0.00 0.00 0.00 0.00 0.00 0.00 0.00 0.00 0.00 0.00 0.00 0.00 0.00 0.00 0.00 0.00 0.00 0.00 0.00 0.00 0.00 0.00 0.00 0.01 0.00 0.00 0.00 0.00 0.00 0.00 0.00
0.00 0.00 0.00 0.00 0.00 0.00 0.00 0.00 0.00 0.00 0.00 0.00 0.00 0.00 0.00 0.00 0.00 0.00 0.00 0.00 0.00 0.00 0.00 0.00 0.00 0.00 0.00 0.00 0.00 0.00 0.00 0.00 0.00 0.00 0.00 0.00 0.00 0.00 0.00 0.00 0.00 0.00 0.00 0.00 0.00
0.00 0.00 0.00 0.00 0.00 0.00 0.00 0.00 0.00 0.00 0.00 0.00 0.00 0.00 0.00 0.00 0.00 0.00 0.00 0.00 0.00 0.00 0.00 0.00 0.00 0.00 0.00 0.00 0.00 0.00 0.00 0.00 0.00 0.00 0.00 0.00 0.00 0.00 0.00 0.00 0.00 0.00 0.00 0.00 0.00
0.00 0.00 0.00 0.00 0.00 0.00 0.00 0.00 0.00 0.00 0.00 0.00 0.00 0.00 0.00 0.00 0.00 0.00 0.00 0.00 0.00 0.00 0.00 0.00 0.00 0.00 0.00 0.00 0.00 0.00 0.00 0.00 0.00 0.00 0.00 0.00 0.00 0.00 0.00 0.00 0.00 0.00 0.00 0.00 0.00
0.00 0.00 0.00 0.00 0.00 0.00 0.00 0.00 0.00 0.00 0.00 0.00 0.00 0.00 0.00 0.00 0.00 0.00 0.00 0.00 0.00 0.00 0.00 0.00 0.00 0.00 0.00 0.00 0.00 0.00 0.00 0.00 0.00 0.00 0.00 0.00 0.00 0.00 0.00 0.00 0.00 0.00 0.00 0.00 0.00
0.00 0.00 0.00 0.00 0.00 0.00 0.00 0.00 0.00 0.00 0.00 0.00 0.00 0.00 0.00 0.00 0.00 0.00 0.00 0.00 0.00 0.00 0.00 0.00 0.00 0.00 0.00 0.00 0.00 0.00 0.00 0.00 0.00 0.00 0.00 0.00 0.00 0.00 0.00 0.00 0.00 0.00 0.00 0.00 0.00
0.00 0.00 0.00 0.00 0.00 0.00 0.00 0.00 0.00 0.00 0.00 0.00 0.00 0.00 0.00 0.00 0.00 0.00 0.00 0.00 0.00 0.00 0.00 0.00 0.00 0.00 0.00 0.00 0.00 0.00 0.00 0.00 0.00 0.00 0.00 0.00 0.00 0.00 0.00 0.00 0.00 0.00 0.00 0.00 0.00
0.00 0.00 0.00 0.00 0.00 0.00 0.00 0.00 0.00 0.00 0.00 0.00 0.00 0.00 0.00 0.00 0.00 0.00 0.00 0.00 0.00 0.00 0.00 0.00 0.00 0.00 0.00 0.00 0.00 0.00 0.00 0.00 0.00 0.00 0.00 0.00 0.00 0.00 0.00 0.00 0.00 0.00 0.00 0.00 0.00
0.00 0.00 0.00 0.00 0.00 0.00 0.00 0.00 0.00 0.00 0.00 0.00 0.00 0.00 0.00 0.00 0.00 0.00 0.00 0.00 0.00 0.00 0.00 0.00 0.00 0.00 0.00 0.00 0.00 0.00 0.00 0.00 0.00 0.00 0.00 0.00 0.00 0.00 0.00 0.00 0.00 0.00 0.00 0.00 0.00
0.00 0.00 0.00 0.00 0.00 0.00 0.00 0.00 0.00 0.00 0.00 0.00 0.00 0.00 0.00 0.00 0.00 0.00 0.00 0.00 0.00 0.00 0.00 0.00 0.00 0.00 0.00 0.00 0.00 0.00 0.00 0.00 0.00 0.00 0.00 0.00 0.00 0.00 0.00 0.00 0.00 0.00 0.00 0.00 0.00
0.00 0.00 0.00 0.00 0.00 0.00 0.00 0.00 0.00 0.00 0.00 0.00 0.00 0.00 0.00 0.00 0.00 0.00 0.00 0.00 0.00 0.00 0.00 0.00 0.00 0.00 0.00 0.00 0.00 0.00 0.00 0.00 0.01 0.02 0.00 0.00 0.00 0.00 0.00 0.00 0.00 0.00 0.00 0.00 0.00
0.00 0.00 0.00 0.00 0.00 0.00 0.00 0.00 0.00 0.00 0.00 0.00 0.00 0.00 0.00 0.00 0.00 0.00 0.00 0.00 0.00 0.00 0.00 0.00 0.00 0.00 0.00 0.00 0.00 0.00 0.00 0.00 0.00 0.00 0.00 0.00 0.00 0.00 0.00 0.00 0.00 0.00 0.00 0.00 0.00
0.00 0.00 0.00 0.00 0.00 0.00 0.00 0.00 0.00 0.00 0.00 0.00 0.00 0.00 0.00 0.00 0.00 0.00 0.00 0.00 0.00 0.00 0.00 0.00 0.00 0.00 0.00 0.00 0.00 0.00 0.00 0.00 0.00 0.00 0.00 0.00 0.00 0.00 0.00 0.00 0.00 0.00 0.00 0.00 0.00
0.00 0.00 0.00 0.00 0.00 0.00 0.00 0.00 0.00 0.00 0.00 0.00 0.00 0.00 0.00 0.00 0.00 0.00 0.00 0.00 0.00 0.00 0.00 0.00 0.00 0.00 0.00 0.00 0.00 0.00 0.00 0.00 0.00 0.00 0.00 0.00 0.00 0.00 0.00 0.00 0.00 0.00 0.00 0.00 0.00
0.00 0.00 0.00 0.00 0.00 0.00 0.00 0.00 0.00 0.00 0.00 0.00 0.00 0.00 0.00 0.00 0.00 0.00 0.00 0.00 0.00 0.00 0.00 0.00 0.00 0.00 0.00 0.00 0.00 0.00 0.00 0.00 0.00 0.00 0.00 0.00 0.00 0.00 0.00 0.00 0.00 0.00 0.00 0.00 0.00
0.00 0.00 0.00 0.00 0.00 0.00 0.00 0.00 0.00 0.00 0.00 0.00 0.00 0.00 0.00 0.00 0.00 0.00 0.00 0.00 0.00 0.00 0.00 0.00 0.00 0.00 0.00 0.00 0.00 0.00 0.00 0.00 0.00 0.00 0.00 0.00 0.00 0.00 0.00 0.00 0.00 0.00 0.00 0.00 0.00
0.00 0.00 0.00 0.00 0.00 0.00 0.00 0.00 0.00 0.00 0.00 0.00 0.00 0.00 0.00 0.00 0.00 0.00 0.00 0.00 0.00 0.00 0.00 0.00 0.00 0.00 0.00 0.00 0.00 0.00 0.00 0.00 0.00 0.00 0.00 0.00 0.00 0.00 0.00 0.00 0.00 0.00 0.00 0.00 0.00
0.00 0.00 0.00 0.00 0.00 0.00 0.00 0.00 0.00 0.00 0.00 0.00 0.00 0.00 0.00 0.00 0.00 0.00 0.00 0.00 0.00 0.00 0.00 0.00 0.00 0.00 0.00 0.00 0.00 0.00 0.00 0.00 0.00 0.00 0.00 0.00 0.00 0.00 0.00 0.00 0.00 0.00 0.00 0.00 0.00
0.00 0.00 0.00 0.00 0.00 0.00 0.00 0.00 0.00 0.00 0.00 0.00 0.00 0.00 0.00 0.00 0.00 0.00 0.00 0.00 0.00 0.00 0.00 0.00 0.00 0.00 0.00 0.00 0.00 0.00 0.00 0.00 0.00 0.00 0.00 0.00 0.00 0.00 0.00 0.00 0.00 0.00 0.00 0.00 0.00
0.00 0.00 0.00 0.00 0.00 0.00 0.00 0.00 0.00 0.00 0.00 0.00 0.00 0.00 0.00 0.00 0.00 0.00 0.00 0.00 0.00 0.00 0.00 0.00 0.00 0.00 0.00 0.00 0.00 0.00 0.00 0.00 0.00 0.00 0.00 0.00 0.00 0.00 0.00 0.00 0.00 0.00 0.00 0.00 0.00
0.00 0.00 0.00 0.00 0.00 0.00 0.00 0.00 0.00 0.00 0.00 0.00 0.00 0.00 0.00 0.00 0.00 0.00 0.00 0.00 0.00 0.00 0.00 0.00 0.00 0.00 0.00 0.00 0.00 0.00 0.00 0.00 0.00 0.00 0.00 0.00 0.00 0.00 0.00 0.00 0.00 0.00 0.00 0.00 0.00
0.00 0.00 0.00 0.00 0.00 0.00 0.00 0.00 0.00 0.00 0.00 0.00 0.00 0.00 0.00 0.00 0.00 0.00 0.00 0.00 0.00 0.00 0.00 0.00 0.00 0.00 0.00 0.00 0.00 0.00 0.00 0.00 0.00 0.00 0.00 0.00 0.00 0.00 0.00 0.00 0.00 0.00 0.00 0.00 0.00
MSLP
1015.49 1015.21 1014.98 1014.77 1014.56 1014.37 1014.16 1013.92 1013.76 1013.59 1013.33 1013.07 1012.81 1012.58 1012.39 1012.21 1011.65 1011.51 1010.38 1008.31 1008.37 1008.33 1008.59 1009.32 1009.54 1009.52 1009.75 1009.83 1009.94 1010.48 1011.53 1011.97 1011.73 1011.68 1011.10 1010.92 1010.67 1010.12 1009.93 1010.56 1011.17 1011.64 1012.02 1012.42 1013.33
1015.56 1015.26 1014.99 1014.69 1014.41 1014.20 1013.98 1013.79 1013.57 1013.37 1013.15 1012.94 1012.74 1012.48 1012.31 1012.15 1011.78 1010.53 1007.45 1007.68 1008.09 1008.21 1008.59 1009.06 1009.32 1009.54 1009.84 1009.77 1009.97 1010.53 1011.41 1011.30 1011.21 1011.22 1010.99 1010.81 1010.71 1010.43 1010.46 1010.82 1011.53 1012.06 1012.47 1012.82 1013.61
1015.59 1015.27 1014.95 1014.62 1014.34 1014.05 1013.81 1013.65 1013.45 1013.21 1013.01 1012.79 1012.66 1012.43 1012.28 1012.15 1011.24 1008.08 1006.57 1007.25 1007.92 1008.10 1008.32 1008.55 1008.84 1009.12 1009.56 1009.77 1010.05 1010.45 1010.94 1010.99 1011.15 1011.10 1010.82 1010.70 1010.61 1010.49 1010.50 1010.89 1011.15 1011.93 1012.79 1013.28 1013.94
1015.64 1015.31 1014.94 1014.61 1014.29 1013.99 1013.68 1013.41 1013.26 1013.13 1012.93 1012.73 1012.51 1012.39 1012.22 1012.06 1009.91 1006.84 1006.58 1007.04 1007.78 1008.19 1008.39 1008.50 1008.80 1009.10 1009.49 1009.83 1009.94 1010.39 1010.82 1010.96 1011.23 1011.15 1011.02 1010.95 1010.85 1010.74 1010.53 1010.57 1010.75 1011.61 1012.39 1013.09 1013.82
1015.59 1015.28 1014.97 1014.64 1014.27 1013.88 1013.57 1013.37 1013.12 1012.91 1012.77 1012.59 1012.40 1012.24 1012.09 1011.09 1008.47 1006.68 1006.58 1007.03 1007.87 1008.28 1008.37 1008.53 1008.76 1009.04 1009.58 1009.97 1010.27 1010.62 1010.91 1011.13 1011.15 1011.14 1011.13 1010.94 1010.87 1010.90 1010.54 1010.42 1011.00 1011.75 1012.42 1012.91 1013.48
1015.64 1015.28 1014.91 1014.59 1014.22 1013.84 1013.42 1013.14 1012.89 1012.71 1012.52 1012.36 1012.30 1012.21 1011.76 1009.78 1006.92 1006.89 1007.07 1007.52 1007.84 1008.16 1008.39 1008.52 1008.55 1008.76 1009.75 1010.44 1010.73 1011.01 1011.20 1011.36 1011.23 1011.06 1011.05 1010.93 1010.90 1010.89 1010.30 1010.32 1011.23 1011.83 1012.35 1012.99 1013.38
1015.69 1015.31 1014.87 1014.49 1014.15 1013.80 1013.42 1013.00 1012.65 1012.43 1012.27 1012.21 1012.16 1012.07 1011.16 1008.24 1007.09 1007.14 1007.33 1007.62 1007.89 1007.97 1008.45 1008.36 1008.33 1008.84 1009.89 1010.79 1011.22 1011.44 1011.55 1011.28 1011.20 1011.21 1011.26 1011.16 1011.05 1010.85 1010.51 1010.52 1011.19 1011.83 1012.27 1012.71 1013.07
1015.50 1015.11 1014.76 1014.36 1013.93 1013.60 1013.29 1012.83 1012.38 1012.19 1012.13 1012.09 1012.06 1011.83 1009.96 1007.33 1007.21 1007.44 1007.47 1007.80 1008.00 1008.02 1008.14 1008.18 1008.49 1009.43 1010.47 1011.25 1011.67 1011.82 1011.84 1011.51 1011.15 1011.20 1011.25 1011.49 1011.17 1010.77 1010.70 1010.86 1011.39 1011.70 1012.13 1012.49 1012.65
1015.29 1014.83 1014.41 1014.04 1013.66 1013.32 1012.97 1012.43 1011.78 1011.93 1011.99 1012.08 1012.06 1011.40 1008.82 1007.05 1007.20 1006.82 1007.09 1007.49 1008.00 1008.23 1008.17 1008.37 1008.81 1010.27 1011.04 1011.63 1012.17 1012.34 1012.07 1011.72 1011.14 1010.93 1011.22 1011.79 1011.33 1010.70 1010.68 1011.01 1011.19 1011.69 1011.96 1012.01 1012.25
1015.16 1014.69 1014.24 1013.85 1013.43 1013.09 1012.76 1012.25 1011.89 1011.89 1012.11 1012.10 1011.65 1011.09 1008.23 1006.85 1006.45 1006.62 1006.97 1007.23 1007.70 1008.20 1008.49 1008.73 1009.79 1010.81 1011.74 1012.07 1012.39 1012.16 1011.86 1011.45 1011.01 1010.86 1011.01 1011.54 1011.39 1011.15 1010.94 1011.05 1011.21 1011.27 1011.54 1011.77 1011.86
1015.04 1014.50 1014.01 1013.55 1013.13 1012.78 1012.70 1012.44 1012.46 1012.00 1011.49 1009.92 1009.35 1008.69 1007.28 1006.34 1006.03 1006.41 1006.75 1007.21 1007.60 1008.13 1008.76 1009.27 1010.31 1010.73 1011.34 1011.51 1011.62 1011.60 1011.38 1010.90 1010.46 1010.30 1010.71 1010.98 1011.13 1010.85 1010.77 1010.86 1010.88 1011.00 1011.13 1011.28 1011.41
1014.78 1014.28 1013.72 1013.19 1012.69 1012.18 1012.21 1011.47 1010.10 1009.87 1009.69 1008.38 1008.22 1007.77 1006.92 1006.36 1006.36 1006.43 1006.53 1007.33 1007.97 1008.60 1009.03 1009.66 1009.93 1010.04 1010.46 1010.99 1011.09 1011.01 1011.10 1010.58 1010.45 1010.41 1010.93 1011.01 1010.65 1010.38 1010.27 1010.14 1010.19 1010.33 1010.66 1010.93 1011.51
1014.51 1013.91 1013.35 1012.84 1012.40 1012.31 1011.69 1010.12 1009.33 1009.21 1009.42 1007.73 1007.27 1006.78 1006.19 1006.32 1006.33 1006.16 1006.46 1007.16 1008.03 1008.86 1009.26 1009.62 1009.57 1009.57 1010.06 1010.70 1010.89 1010.58 1010.80 1010.46 1010.54 1010.73 1011.21 1011.38 1010.87 1009.92 1009.43 1009.41 1009.43 1009.76 1010.04 1010.53 1010.89
1014.15 1013.58 1013.12 1012.60 1012.53 1012.08 1010.77 1009.40 1009.33 1009.33 1009.06 1007.40 1006.56 1005.39 1005.63 1005.72 1005.89 1005.58 1006.05 1006.93 1007.95 1008.55 1009.44 1009.51 1008.88 1009.09 1009.49 1009.91 1010.19 1010.24 1009.98 1010.15 1011.00 1011.36 1011.66 1011.72 1011.53 1010.02 1009.57 1009.34 1009.16 1009.20 1009.58 1010.02 1010.44
1013.75 1013.21 1012.93 1012.86 1012.50 1011.63 1009.65 1009.36 1009.24 1009.25 1008.59 1006.47 1005.66 1004.74 1005.25 1005.59 1005.55 1005.83 1005.75 1006.47 1007.62 1008.33 1009.20 1008.71 1008.45 1008.60 1008.85 1009.01 1009.34 1009.38 1009.40 1010.32 1011.16 1011.79 1012.12 1012.39 1012.20 1009.69 1009.60 1009.27 1009.01 1008.71 1008.97 1009.39 1009.75
1013.13 1012.71 1012.46 1012.41 1012.38 1010.13 1009.48 1009.32 1009.19 1009.39 1007.62 1005.70 1004.96 1005.02 1005.44 1005.40 1005.42 1005.79 1005.98 1006.36 1007.17 1008.10 1008.57 1008.35 1007.80 1007.88 1007.57 1007.87 1008.61 1008.94 1010.09 1011.35 1012.18 1012.85 1013.03 1012.41 1011.98 1009.80 1009.32 1008.47 1008.06 1008.22 1008.48 1008.87 1009.28
1012.19 1011.61 1011.77 1011.33 1010.49 1009.58 1009.49 1009.39 1009.84 1008.91 1007.06 1006.09 1005.29 1005.13 1005.23 1005.52 1005.70 1005.88 1006.45 1007.00 1007.70 1008.71 1008.96 1008.11 1007.60 1007.06 1007.01 1007.81 1008.68 1009.36 1010.90 1012.32 1013.25 1013.64 1013.17 1012.28 1011.88 1009.34 1008.13 1007.58 1007.36 1007.61 1007.90 1008.37 1008.91
1011.19 1010.49 1010.61 1010.36 1009.80 1009.74 1009.50 1009.67 1009.88 1008.48 1007.26 1006.07 1005.50 1005.36 1005.49 1005.57 1005.81 1006.24 1006.81 1007.50 1007.79 1008.40 1009.15 1008.60 1007.56 1006.55 1006.21 1006.62 1007.64 1009.41 1010.65 1011.87 1012.72 1013.57 1013.00 1012.10 1010.87 1008.22 1007.17 1007.00 1006.93 1006.91 1007.34 1008.00 1008.63
1010.64 1010.42 1010.72 1009.54 1009.50 1009.93 1009.69 1010.33 1009.52 1008.59 1007.35 1006.55 1005.71 1005.54 1005.63 1005.45 1005.86 1006.37 1006.82 1007.05 1007.11 1007.61 1008.55 1008.39 1007.19 1005.76 1005.55 1005.86 1006.49 1008.91 1009.91 1010.23 1011.92 1013.25 1013.06 1011.85 1010.07 1007.83 1007.07 1007.16 1007.17 1007.17 1007.45 1007.76 1008.31
1011.42 1010.74 1010.09 1009.32 1009.37 1009.57 1009.90 1010.27 1009.56 1008.46 1007.35 1006.65 1006.36 1005.87 1005.96 1005.76 1006.03 1006.46 1006.48 1005.84 1006.37 1006.48 1006.63 1007.56 1007.37 1005.86 1005.48 1005.52 1006.49 1007.20 1008.39 1010.26 1011.84 1012.84 1013.25 1011.89 1010.51 1008.79 1007.42 1007.16 1007.30 1007.36 1007.37 1007.60 1007.94
1011.35 1010.87 1010.12 1009.37 1009.52 1009.95 1010.87 1010.49 1009.32 1008.06 1007.51 1006.87 1006.57 1006.49 1006.37 1006.07 1005.98 1006.00 1005.85 1005.24 1005.05 1005.71 1006.35 1007.19 1007.30 1005.97 1005.69 1005.71 1006.28 1007.54 1008.25 1009.92 1011.32 1012.19 1012.70 1012.05 1010.09 1007.57 1006.97 1006.65 1006.64 1006.90 1007.04 1007.17 1007.49
1012.41 1011.56 1009.88 1009.51 1010.35 1011.68 1011.44 1010.50 1009.14 1007.94 1007.17 1006.84 1006.63 1006.47 1006.38 1006.07 1005.87 1005.76 1005.43 1004.86 1004.57 1005.13 1006.15 1006.39 1006.90 1006.93 1006.00 1005.66 1005.82 1006.37 1007.28 1008.76 1010.94 1012.23 1012.42 1011.49 1008.98 1006.86 1006.44 1006.15 1006.02 1006.38 1006.67 1006.70 1006.82
1013.94 1012.98 1010.33 1010.08 1011.59 1012.40 1011.61 1010.66 1009.60 1008.59 1007.81 1007.21 1006.81 1006.48 1006.22 1006.15 1006.10 1005.44 1004.82 1003.95 1004.24 1004.72 1005.24 1006.01 1006.68 1006.98 1006.44 1006.22 1005.86 1006.40 1007.09 1008.19 1009.38 1010.49 1011.30 1011.09 1008.57 1006.91 1006.32 1005.88 1005.70 1005.91 1006.04 1006.06 1006.40
1014.52 1013.97 1012.57 1012.09 1012.85 1012.79 1012.54 1011.70 1010.37 1009.16 1008.52 1008.08 1007.33 1006.62 1006.54 1006.43 1006.40 1006.01 1005.33 1004.43 1004.34 1004.63 1004.90 1005.30 1006.56 1006.29 1005.96 1005.45 1005.51 1006.20 1006.66 1007.66 1008.56 1009.73 1010.15 1009.52 1008.08 1006.56 1006.12 1005.92 1005.81 1005.62 1005.47 1005.68 1005.93
1015.22 1015.87 1015.46 1014.50 1014.13 1013.78 1013.10 1012.37 1011.46 1010.46 1009.40 1008.81 1008.17 1008.05 1007.85 1007.57 1007.35 1007.05 1006.39 1005.95 1005.21 1005.22 1005.36 1005.89 1006.39 1006.15 1005.49 1005.04 1005.23 1005.13 1005.70 1006.54 1007.47 1007.70 1008.02 1007.57 1007.65 1006.01 1005.41 1005.24 1005.22 1005.41 1005.60 1005.86 1006.07
1016.44 1016.54 1015.87 1015.51 1014.95 1014.26 1013.65 1013.17 1012.32 1011.58 1010.85 1010.03 1009.69 1009.07 1008.49 1008.53 1008.72 1008.44 1007.81 1007.03 1006.65 1006.13 1006.15 1006.70 1006.76 1006.70 1005.81 1005.05 1004.91 1005.33 1005.09 1005.35 1006.10 1006.54 1006.39 1006.52 1006.50 1005.45 1004.91 1004.98 1005.29 1005.40 1005.77 1006.13 1006.00
1017.07 1016.88 1016.56 1016.19 1015.57 1015.06 1014.53 1013.80 1013.07 1012.58 1011.33 1010.74 1010.50 1009.91 1009.25 1009.26 1009.21 1008.85 1008.51 1007.80 1007.52 1007.31 1007.13 1007.18 1007.31 1007.69 1006.89 1005.80 1004.82 1005.17 1004.40 1004.66 1004.57 1004.74 1005.00 1005.58 1004.85 1004.62 1004.89 1004.98 1004.79 1005.18 1005.70 1005.83 1005.85
Thickness
5747 5749 5751 5753 5755 5756 5758 5761 5763 5765 5767 5769 5772 5774 5775 5777 5781 5782 5784 5804 5805 5807 5804 5798 5793 5791 5790 5782 5785 5780 5741 5731 5745 5741 5752 5762 5760 5776 5781 5767 5767 5767 5761 5764 5762
5749 5751 5754 5756 5759 5760 5762 5764 5766 5768 5770 5772 5774 5776 5777 5778 5780 5783 5815 5812 5807 5806 5798 5789 5783 5784 5774 5778 5777 5763 5738 5749 5761 5758 5755 5760 5760 5765 5763 5760 5756 5757 5761 5762 5758
5752 5754 5757 5759 5762 5764 5766 5768 5770 5772 5773 5775 5775 5777 5778 5779 5783 5799 5822 5815 5809 5807 5802 5797 5792 5785 5773 5778 5774 5766 5750 5764 5761 5761 5765 5762 5762 5768 5759 5752 5761 5754 5754 5755 5754
5753 5756 5758 5761 5764 5767 5769 5772 5773 5774 5775 5776 5777 5778 5779 5779 5770 5815 5821 5816 5808 5804 5798 5791 5785 5775 5767 5764 5776 5759 5765 5766 5760 5763 5761 5756 5762 5756 5762 5763 5773 5767 5763 5758 5754
5755 5757 5759 5762 5765 5768 5771 5773 5775 5776 5777 5777 5778 5779 5780 5781 5789 5820 5820 5815 5806 5799 5790 5783 5778 5773 5762 5765 5768 5760 5763 5763 5762 5762 5761 5764 5757 5755 5761 5773 5773 5767 5763 5760 5758
5754 5757 5760 5762 5765 5768 5772 5774 5776 5777 5778 5779 5779 5779 5781 5776 5819 5818 5815 5809 5802 5795 5787 5785 5780 5781 5765 5760 5758 5763 5761 5761 5762 5760 5761 5756 5756 5758 5766 5774 5766 5764 5761 5759 5758
5753 5756 5759 5762 5765 5768 5771 5774 5777 5778 5779 5779 5779 5779 5779 5789 5817 5815 5811 5804 5801 5796 5781 5789 5791 5779 5768 5753 5761 5756 5750 5760 5759 5759 5755 5760 5750 5751 5767 5770 5763 5760 5761 5761 5760
5752 5755 5758 5761 5765 5768 5770 5774 5777 5778 5778 5778 5778 5778 5776 5813 5813 5810 5808 5799 5798 5796 5791 5794 5791 5771 5760 5757 5749 5742 5744 5736 5755 5756 5757 5752 5734 5756 5769 5765 5758 5761 5761 5761 5762
5751 5755 5758 5762 5765 5768 5771 5775 5780 5778 5777 5775 5775 5776 5780 5813 5803 5810 5808 5794 5790 5788 5790 5793 5782 5757 5755 5737 5726 5729 5722 5729 5744 5759 5752 5745 5738 5758 5768 5764 5760 5760 5760 5763 5763
5750 5754 5757 5760 5764 5767 5770 5774 5776 5775 5772 5772 5774 5770 5793 5793 5807 5807 5806 5798 5787 5781 5775 5772 5753 5736 5730 5723 5704 5724 5724 5734 5736 5754 5754 5741 5739 5753 5765 5763 5761 5762 5763 5763 5764
5748 5753 5756 5760 5763 5766 5768 5770 5769 5767 5770 5781 5786 5784 5793 5806 5812 5802 5801 5791 5784 5773 5751 5756 5737 5727 5730 5736 5740 5738 5732 5736 5750 5763 5753 5745 5743 5753 5761 5763 5763 5764 5764 5767 5767
5747 5751 5756 5759 5764 5769 5770 5776 5784 5782 5767 5788 5786 5786 5796 5802 5785 5793 5801 5774 5765 5748 5755 5741 5730 5747 5750 5743 5742 5738 5735 5736 5751 5759 5750 5747 5749 5759 5764 5764 5768 5769 5767 5767 5763
5743 5748 5754 5758 5762 5765 5772 5782 5788 5787 5763 5781 5787 5787 5792 5795 5780 5782 5790 5774 5758 5745 5743 5728 5746 5754 5750 5737 5735 5737 5730 5737 5741 5749 5747 5745 5743 5757 5770 5772 5774 5773 5775 5772 5768
5739 5743 5748 5754 5757 5760 5771 5785 5784 5783 5742 5767 5779 5792 5794 5794 5779 5798 5794 5777 5759 5742 5736 5737 5756 5756 5746 5741 5742 5723 5751 5752 5741 5735 5723 5744 5715 5750 5762 5765 5772 5775 5773 5772 5771
5737 5741 5744 5745 5746 5757 5776 5778 5780 5775 5717 5778 5780 5808 5794 5782 5784 5781 5796 5777 5748 5748 5741 5741 5753 5750 5743 5748 5753 5745 5759 5749 5743 5730 5728 5725 5719 5751 5758 5757 5765 5776 5777 5776 5777
5739 5741 5744 5744 5743 5762 5768 5771 5770 5728 5714 5766 5783 5774 5773 5779 5780 5779 5778 5782 5771 5753 5751 5748 5768 5763 5763 5768 5762 5766 5745 5730 5720 5714 5702 5724 5726 5738 5752 5764 5774 5779 5781 5780 5779
5742 5745 5744 5746 5756 5762 5763 5760 5718 5704 5761 5755 5767 5772 5769 5763 5767 5768 5757 5751 5737 5721 5725 5746 5754 5771 5778 5760 5759 5748 5725 5689 5695 5691 5698 5718 5722 5742 5773 5779 5782 5780 5784 5785 5782
5746 5750 5747 5749 5755 5756 5757 5735 5707 5730 5739 5765 5767 5766 5756 5762 5762 5759 5749 5737 5750 5737 5714 5717 5724 5761 5778 5770 5750 5734 5725 5693 5693 5686 5705 5727 5720 5752 5785 5787 5792 5793 5790 5787 5782
5747 5747 5742 5752 5754 5751 5744 5706 5708 5721 5748 5750 5756 5752 5753 5765 5763 5755 5744 5740 5750 5747 5727 5714 5733 5778 5782 5781 5775 5739 5724 5743 5705 5701 5701 5716 5742 5771 5787 5782 5786 5787 5788 5785 5783
5738 5742 5748 5752 5752 5749 5726 5708 5721 5735 5748 5750 5736 5749 5741 5751 5751 5744 5739 5764 5759 5762 5765 5749 5731 5774 5782 5784 5773 5759 5756 5724 5707 5709 5702 5712 5724 5736 5775 5777 5782 5784 5787 5788 5789
5738 5742 5745 5750 5748 5734 5707 5707 5724 5738 5745 5742 5737 5737 5740 5746 5748 5744 5753 5769 5775 5769 5763 5750 5745 5760 5777 5766 5753 5748 5742 5726 5718 5708 5697 5696 5727 5767 5777 5787 5789 5790 5792 5794 5794
5722 5725 5745 5747 5722 5698 5707 5719 5733 5738 5748 5743 5744 5740 5737 5749 5749 5746 5750 5763 5784 5772 5754 5761 5741 5731 5749 5774 5776 5768 5756 5741 5713 5717 5697 5703 5726 5788 5788 5794 5799 5799 5797 5801 5802
5707 5709 5738 5739 5702 5697 5707 5716 5727 5729 5733 5740 5739 5741 5744 5742 5739 5750 5761 5789 5786 5774 5761 5762 5739 5723 5737 5754 5770 5763 5758 5742 5727 5718 5703 5704 5727 5779 5785 5793 5798 5799 5802 5804 5802
5705 5707 5712 5712 5700 5702 5698 5703 5709 5727 5725 5730 5736 5744 5741 5737 5738 5741 5754 5774 5781 5778 5776 5773 5737 5742 5729 5749 5758 5753 5757 5748 5741 5719 5715 5718 5748 5775 5783 5784 5789 5795 5802 5801 5800
5692 5685 5684 5685 5691 5690 5693 5697 5699 5699 5715 5719 5724 5721 5717 5718 5720 5723 5741 5745 5766 5764 5764 5757 5741 5743 5754 5762 5763 5765 5758 5751 5744 5747 5743 5752 5742 5772 5783 5788 5791 5793 5794 5792 5793
5680 5675 5675 5675 5675 5684 5679 5684 5690 5690 5697 5701 5700 5707 5713 5708 5709 5709 5722 5733 5728 5751 5750 5740 5735 5743 5751 5761 5760 5756 5759 5755 5756 5748 5756 5756 5749 5775 5788 5792 5789 5788 5785 5782 5787
5665 5663 5664 5663 5664 5668 5667 5672 5681 5681 5693 5699 5695 5694 5702 5704 5707 5709 5713 5720 5727 5733 5733 5733 5727 5715 5722 5748 5750 5735 5755 5754 5763 5764 5763 5745 5771 5782 5782 5784 5786 5784 5782 5781 5784